Location: Kawakawa
(35.3830°S, 174.0670°E)
Time: 16:58:56
(UTC+12:00)

Aureole 1 Rocket - Pass Details

Date: 15 August 2020
Orbit: 378 x 1379 km, 73.9° (Epoch: 25 September)

Event Time Altitude Azimuth Distance (km) Brightness Sun altitude
Rises 18:46:06 0° 200° (SSW) 2,528 6.3 -11.6°
Reaches altitude 10° 18:48:00 10° 201° (SSW) 1,734 5.5 -12.0°
Maximum altitude 18:51:47 79° 287° (WNW) 613 3.1 -12.7°
Drops below altitude 10° 18:56:40 10° 12° (NNE) 2,222 5.9 -13.7°
Sets 18:59:22 0° 13° (NNE) 3,314 6.7 -14.3°
